When you browse on this site, cookies collect data to enhance your experience and personalize the content and advertising you see.
Visit our Privacy Policy to learn more. By continuing to use the site, you agree to this use of cookies and data.
  • In Schweiz
  • Länderverzeichnis
  • Für 7 Tage
  • Wassertemperatur
  • Satellitenkarten
  • Wetterkarte
  • Widgets
  • user-avatar
    Anmelden

    Stündliche Wetter Pleskachivka

    Heute, 17 Februar, Sonntag

    Zeit Temperatur Niederschläge Wind Luftdruck Luftfeuchtigkeit
    00:00 -1°C° 0 mm 3 m/S 747 mmHg 95%
    01:00 -1°C° 0 mm 3 m/S 747 mmHg 95%
    02:00 -2°C° 0 mm 3 m/S 747 mmHg 95%
    03:00 -4°C° 0 mm 4 m/S 746 mmHg 96%
    04:00 -4°C° 0 mm 4 m/S 746 mmHg 96%
    05:00 -4°C° 0 mm 4 m/S 746 mmHg 96%
    06:00 -5°C° 0 mm 5 m/S 745 mmHg 96%
    07:00 -5°C° 0 mm 5 m/S 745 mmHg 95%
    08:00 -4°C° 0 mm 6 m/S 744 mmHg 94%
    09:00 -4°C° 0 mm 6 m/S 744 mmHg 94%
    10:00 -4°C° 0 mm 6 m/S 743 mmHg 94%
    11:00 -3°C° 0 mm 6 m/S 743 mmHg 95%
    12:00 -2°C° 0 mm 7 m/S 742 mmHg 95%
    13:00 -2°C° 0 mm 7 m/S 742 mmHg 95%
    14:00 -2°C° 0 mm 7 m/S 741 mmHg 95%
    15:00 -2°C° 0 mm 7 m/S 741 mmHg 96%
    16:00 -2°C° 0 mm 7 m/S 741 mmHg 95%
    17:00 -2°C° 0 mm 7 m/S 740 mmHg 94%
    18:00 -2°C° 0 mm 7 m/S 740 mmHg 92%
    19:00 -2°C° 0 mm 7 m/S 740 mmHg 92%
    20:00 -2°C° 0 mm 7 m/S 741 mmHg 91%
    21:00 -2°C° 0 mm 6 m/S 741 mmHg 90%
    22:00 -2°C° 0 mm 6 m/S 741 mmHg 89%
    23:00 -2°C° 0 mm 6 m/S 741 mmHg 87%

    Morgen, 18 Februar, Montag

    Zeit Temperatur Niederschläge Wind Luftdruck Luftfeuchtigkeit
    00:00 -2°C° 0 mm 7 m/S 741 mmHg 86%
    01:00 -3°C° 0 mm 6 m/S 741 mmHg 85%
    02:00 -3°C° 0 mm 6 m/S 742 mmHg 83%
    03:00 -3°C° 0 mm 6 m/S 742 mmHg 82%
    04:00 -4°C° 0 mm 6 m/S 742 mmHg 84%
    05:00 -5°C° 0 mm 6 m/S 742 mmHg 85%
    06:00 -6°C° 0 mm 6 m/S 743 mmHg 86%
    07:00 -6°C° 0 mm 6 m/S 743 mmHg 86%
    08:00 -6°C° 0 mm 6 m/S 744 mmHg 86%
    09:00 -8°C° 0 mm 6 m/S 744 mmHg 86%
    10:00 -6°C° 0 mm 6 m/S 745 mmHg 84%
    11:00 -7°C° 0 mm 7 m/S 745 mmHg 83%
    12:00 -6°C° 0 mm 7 m/S 746 mmHg 82%
    13:00 -6°C° 0 mm 7 m/S 746 mmHg 81%
    14:00 -6°C° 0 mm 7 m/S 746 mmHg 80%
    15:00 -6°C° 0 mm 7 m/S 747 mmHg 80%
    16:00 -5°C° 0 mm 6 m/S 747 mmHg 80%
    17:00 -6°C° 0 mm 6 m/S 748 mmHg 80%
    18:00 -6°C° 0 mm 6 m/S 748 mmHg 80%
    19:00 -6°C° 0 mm 6 m/S 748 mmHg 80%
    20:00 -8°C° 0 mm 6 m/S 749 mmHg 79%
    21:00 -8°C° 0 mm 6 m/S 749 mmHg 79%
    22:00 -7°C° 0 mm 5 m/S 750 mmHg 80%
    23:00 -8°C° 0 mm 4 m/S 750 mmHg 81%

    übermorgen, 19 Februar, Dienstag

    Zeit Temperatur Niederschläge Wind Luftdruck Luftfeuchtigkeit
    00:00 -8°C° 0 mm 4 m/S 751 mmHg 82%
    01:00 -8°C° 0 mm 3 m/S 751 mmHg 85%
    02:00 -9°C° 0 mm 3 m/S 752 mmHg 87%
    03:00 -9°C° 0 mm 3 m/S 752 mmHg 90%
    04:00 -10°C° 0 mm 3 m/S 752 mmHg 90%
    05:00 -10°C° 0 mm 3 m/S 753 mmHg 90%
    06:00 -12°C° 0 mm 3 m/S 753 mmHg 90%
    07:00 -12°C° 0 mm 3 m/S 753 mmHg 90%
    08:00 -12°C° 0 mm 3 m/S 754 mmHg 89%
    09:00 -12°C° 0 mm 3 m/S 754 mmHg 89%
    10:00 -9°C° 0 mm 2 m/S 755 mmHg 85%
    11:00 -8°C° 0 mm 2 m/S 755 mmHg 82%
    12:00 -7°C° 0 mm 2 m/S 755 mmHg 79%
    13:00 -6°C° 0 mm 1 m/S 755 mmHg 77%
    14:00 -6°C° 0 mm 1 m/S 755 mmHg 75%
    15:00 -5°C° 0 mm 0 m/S 755 mmHg 73%
    16:00 -6°C° 0 mm 0 m/S 755 mmHg 77%
    17:00 -7°C° 0 mm 0 m/S 755 mmHg 80%
    18:00 -7°C° 0 mm 0 m/S 755 mmHg 84%
    19:00 -7°C° 0 mm 1 m/S 755 mmHg 85%
    20:00 -8°C° 0 mm 1 m/S 755 mmHg 86%
    21:00 -8°C° 0 mm 1 m/S 755 mmHg 86%
    22:00 -9°C° 0 mm 2 m/S 755 mmHg 87%
    23:00 -9°C° 0 mm 2 m/S 754 mmHg 87%

    20 Februar, Mittwoch

    Zeit Temperatur Niederschläge Wind Luftdruck Luftfeuchtigkeit
    00:00 -9°C° 0 mm 2 m/S 754 mmHg 87%
    01:00 -9°C° 0 mm 2 m/S 754 mmHg 87%
    02:00 -10°C° 0 mm 3 m/S 754 mmHg 88%
    03:00 -10°C° 0 mm 3 m/S 753 mmHg 88%
    04:00 -10°C° 0 mm 3 m/S 753 mmHg 88%
    05:00 -10°C° 0 mm 3 m/S 753 mmHg 88%
    06:00 -10°C° 0 mm 3 m/S 752 mmHg 88%
    07:00 -9°C° 0 mm 3 m/S 752 mmHg 87%
    08:00 -10°C° 0 mm 4 m/S 752 mmHg 86%
    09:00 -9°C° 0 mm 4 m/S 751 mmHg 86%
    10:00 -8°C° 0 mm 4 m/S 751 mmHg 85%
    11:00 -7°C° 0 mm 5 m/S 751 mmHg 83%
    12:00 -5°C° 0 mm 6 m/S 750 mmHg 82%
    13:00 -5°C° 0 mm 6 m/S 750 mmHg 81%
    14:00 -4°C° 0 mm 6 m/S 749 mmHg 80%
    15:00 -4°C° 0 mm 6 m/S 749 mmHg 78%
    16:00 -5°C° 0 mm 5 m/S 748 mmHg 79%
    17:00 -5°C° 0 mm 5 m/S 748 mmHg 79%
    18:00 -4°C° 0 mm 4 m/S 748 mmHg 80%
    19:00 -5°C° 0 mm 5 m/S 747 mmHg 81%
    20:00 -4°C° 0 mm 5 m/S 747 mmHg 83%
    21:00 -4°C° 0 mm 5 m/S 747 mmHg 84%
    22:00 -2°C° 0 mm 5 m/S 747 mmHg 87%
    23:00 -2°C° 0 mm 5 m/S 747 mmHg 90%

    21 Februar, Donnerstag

    Zeit Temperatur Niederschläge Wind Luftdruck Luftfeuchtigkeit
    00:00 -2°C° 0 mm 5 m/S 746 mmHg 92%
    01:00 -2°C° 0 mm 5 m/S 746 mmHg 93%
    02:00 -2°C° 0 mm 4 m/S 746 mmHg 94%
    03:00 -2°C° 0 mm 4 m/S 745 mmHg 95%
    04:00 -2°C° 0 mm 4 m/S 745 mmHg 94%
    05:00 -3°C° 0 mm 4 m/S 745 mmHg 93%
    06:00 -3°C° 0 mm 4 m/S 744 mmHg 92%
    07:00 -4°C° 0 mm 5 m/S 744 mmHg 92%
    08:00 -2°C° 0 mm 5 m/S 744 mmHg 92%
    09:00 -2°C° 0 mm 5 m/S 744 mmHg 92%
    10:00 -2°C° 0 mm 5 m/S 744 mmHg 94%
    11:00 -1°C° 0 mm 5 m/S 744 mmHg 97%
    12:00 -1°C° 0 mm 5 m/S 744 mmHg 99%
    13:00 -1°C° 0.1 mm 5 m/S 743 mmHg 98%
    14:00 -1°C° 0.1 mm 5 m/S 743 mmHg 98%
    15:00 -1°C° 0.1 mm 5 m/S 743 mmHg 97%
    16:00 -1°C° 0.1 mm 5 m/S 743 mmHg 94%
    17:00 -1°C° 0.1 mm 5 m/S 743 mmHg 91%
    18:00 -1°C° 0.1 mm 5 m/S 743 mmHg 88%
    19:00 -2°C° 0.1 mm 5 m/S 743 mmHg 87%
    20:00 -2°C° 0.1 mm 5 m/S 743 mmHg 87%
    21:00 -2°C° 0.1 mm 5 m/S 743 mmHg 87%
    22:00 -2°C° 0.1 mm 5 m/S 743 mmHg 87%
    23:00 -4°C° 0.1 mm 5 m/S 743 mmHg 88%

    22 Februar, Freitag

    Zeit Temperatur Niederschläge Wind Luftdruck Luftfeuchtigkeit
    00:00 -4°C° 0.1 mm 5 m/S 743 mmHg 88%
    01:00 -5°C° 0 mm 5 m/S 744 mmHg 88%
    02:00 -5°C° 0 mm 5 m/S 744 mmHg 88%
    03:00 -6°C° 0 mm 5 m/S 744 mmHg 88%
    04:00 -5°C° 0 mm 4 m/S 745 mmHg 89%
    05:00 -7°C° 0 mm 4 m/S 745 mmHg 89%
    06:00 -8°C° 0 mm 4 m/S 745 mmHg 90%
    07:00 -8°C° 0 mm 4 m/S 746 mmHg 88%
    08:00 -8°C° 0 mm 4 m/S 746 mmHg 86%
    09:00 -9°C° 0 mm 4 m/S 746 mmHg 85%
    10:00 -9°C° 0 mm 4 m/S 747 mmHg 83%
    11:00 -8°C° 0 mm 4 m/S 747 mmHg 82%
    12:00 -8°C° 0 mm 4 m/S 747 mmHg 80%
    13:00 -8°C° 0 mm 4 m/S 747 mmHg 79%
    14:00 -8°C° 0 mm 4 m/S 748 mmHg 77%
    15:00 -10°C° 0 mm 5 m/S 748 mmHg 75%
    16:00 -10°C° 0 mm 5 m/S 748 mmHg 76%
    17:00 -11°C° 0 mm 5 m/S 749 mmHg 76%
    18:00 -12°C° 0 mm 6 m/S 749 mmHg 76%
    19:00 -12°C° 0 mm 6 m/S 750 mmHg 76%
    20:00 -14°C° 0 mm 6 m/S 750 mmHg 76%
    21:00 -15°C° 0 mm 6 m/S 751 mmHg 76%
    22:00 -15°C° 0 mm 6 m/S 751 mmHg 76%
    23:00 -15°C° 0 mm 6 m/S 752 mmHg 77%
    Mehr zeigen